This is the latest recevied weather packets stored in our database for station/object AD8BW. If no packets are shown the sender has not sent any weather packets the latest 10 day(s).
| Time | Temp. | Humidity | Pressure | Rain* | Wind** | Luminosity | Snow |
|---|---|---|---|---|---|---|---|
| 1777432565 | 10.56° C | 86% | 1013.3 hPa | 0 mm | - | 0 W/m² | - |
| 1777431957 | 10.56° C | 85% | 1013 hPa | 0 mm | - | 0 W/m² | - |
| 1777431358 | 10.56° C | 85% | 1013 hPa | 0 mm | - | 0 W/m² | - |
| 1777430758 | 10.56° C | 84% | 1012.7 hPa | 0 mm | - | 0 W/m² | - |
| 1777430156 | 10.56° C | 84% | 1012.3 hPa | 0 mm | - | 0 W/m² | - |
| 1777429557 | 10.56° C | 83% | 1012.3 hPa | 0 mm | - | 0 W/m² | - |
| 1777428955 | 11.11° C | 83% | 1011.9 hPa | 0 mm | - | 0 W/m² | - |
| 1777428356 | 11.11° C | 82% | 1012.2 hPa | 0 mm | - | 0 W/m² | - |
| 1777427756 | 11.67° C | 81% | 1012.3 hPa | 0 mm | - | 0 W/m² | - |
| 1777427170 | 11.67° C | 81% | 1012.1 hPa | 0 mm | - | 0 W/m² | - |
| 1777426554 | 11.67° C | 79% | 1012.3 hPa | 0 mm | - | 0 W/m² | - |
| 1777425949 | 12.22° C | 78% | 1011.9 hPa | 0 mm | - | 0 W/m² | - |
| 1777425351 | 12.78° C | 77% | 1012.3 hPa | 0 mm | - | 0 W/m² | - |
| 1777424749 | 12.78° C | 76% | 1012.2 hPa | 0 mm | - | 0 W/m² | - |
| 1777424154 | 13.33° C | 74% | 1011.7 hPa | 0 mm | - | 0 W/m² | - |
| 1777423549 | 13.33° C | 73% | 1011.7 hPa | 0 mm | - | 0 W/m² | - |
| 1777422948 | 13.89° C | 72% | 1011.9 hPa | 0 mm | - | 0 W/m² | - |
| 1777422350 | 13.89° C | 71% | 1012.1 hPa | 0 mm | - | 0 W/m² | - |
| 1777421756 | 13.89° C | 71% | 1011.8 hPa | 0 mm | - | 5 W/m² | - |
| 1777421150 | 14.44° C | 71% | 1011.8 hPa | 0 mm | - | 9 W/m² | - |
| 1777420547 | 14.44° C | 70% | 1011.6 hPa | 0 mm | - | 9 W/m² | - |
| 1777419948 | 14.44° C | 69% | 1011.3 hPa | 0 mm | - | 12 W/m² | - |
| 1777419347 | 15° C | 69% | 1011.4 hPa | 0 mm | - | 26 W/m² | - |
| 1777418749 | 15° C | 69% | 1011.6 hPa | 0 mm | - | 40 W/m² | - |
| 1777418147 | 15° C | 68% | 1011.3 hPa | 0 mm | - | 39 W/m² | - |
* Rain latest hour (hover to see other rain measurements)
** Current wind speed in m/s (hover to see current wind gust speed)